"datetime","temp","dp","rain_mm","uv","solar","mb","wind_mph","gust_mph","windchill","rh"
"2013-10-22 00:00:00",16.2,14.6,0.0,0.0,0,1002.1,1,3,"",90
"2013-10-22 00:01:00",16.2,14.6,0.0,0.0,0,1002.1,1,1,"",90
"2013-10-22 00:02:00",16.2,14.6,0.0,0.0,0,1002.1,0,3,"",90
"2013-10-22 00:03:00",16.2,14.6,0.0,0.0,0,1002.1,1,4,"",90
"2013-10-22 00:04:00",16.2,14.6,0.0,0.0,0,1002.1,1,3,"",90
"2013-10-22 00:05:00",16.2,14.6,0.0,0.0,0,1002.1,1,1,"",90
"2013-10-22 00:06:00",16.2,14.6,0.0,0.0,0,1002.1,0,4,"",90
"2013-10-22 00:07:00",16.2,14.6,0.0,0.0,0,1002.1,1,4,"",90
"2013-10-22 00:08:00",16.2,14.6,0.0,0.0,0,1002.1,1,3,"",90
"2013-10-22 00:09:00",16.2,14.5,0.0,0.0,0,1002.2,1,1,"",90
"2013-10-22 00:10:00",16.2,14.5,0.0,0.0,0,1002.1,1,4,"",90
"2013-10-22 00:11:00",16.2,14.5,0.0,0.0,0,1002.1,1,4,"",90
"2013-10-22 00:12:00",16.2,14.5,0.0,0.0,0,1002.1,1,1,"",90
"2013-10-22 00:13:00",16.2,14.5,0.0,0.0,0,1002.1,1,3,"",90
"2013-10-22 00:14:00",16.2,14.5,0.0,0.0,0,1002.2,1,4,"",90
"2013-10-22 00:15:00",16.2,14.5,0.0,0.0,0,1002.1,3,9,"",90
"2013-10-22 00:16:00",16.2,14.5,0.0,0.0,0,1002.2,3,4,"",90
"2013-10-22 00:17:00",16.2,14.5,0.0,0.0,0,1002.2,1,3,"",90
"2013-10-22 00:18:00",16.2,14.5,0.0,0.0,0,1002.2,1,3,"",90
"2013-10-22 00:19:00",16.2,14.5,0.0,0.0,0,1002.2,0,1,"",90
"2013-10-22 00:20:00",16.2,14.5,0.0,0.0,0,1002.1,1,4,"",90
"2013-10-22 00:21:00",16.2,14.5,0.0,0.0,0,1002.1,1,3,"",90
"2013-10-22 00:22:00",16.2,14.5,0.0,0.0,0,1002.1,1,3,"",90
"2013-10-22 00:23:00",16.2,14.5,0.0,0.0,0,1002.1,1,4,"",90
"2013-10-22 00:24:00",16.1,14.5,0.0,0.0,0,1002.1,3,4,"",90
"2013-10-22 00:25:00",16.1,14.5,0.0,0.0,0,1002.1,1,3,"",90
"2013-10-22 00:26:00",16.1,14.5,0.0,0.0,0,1002.0,1,3,"",90
"2013-10-22 00:27:00",16.2,14.5,0.0,0.0,0,1002.0,1,1,"",90
"2013-10-22 00:28:00",16.1,14.5,0.0,0.0,0,1002.0,1,6,"",90
"2013-10-22 00:29:00",16.1,14.5,0.0,0.0,0,1002.0,3,4,"",90
"2013-10-22 00:30:00",16.1,14.5,0.0,0.0,0,1002.0,1,6,"",90
"2013-10-22 00:31:00",16.1,14.5,0.0,0.0,0,1002.0,1,3,"",90
"2013-10-22 00:32:00",16.1,14.5,0.0,0.0,0,1002.0,1,4,"",90
"2013-10-22 00:33:00",16.1,14.5,0.0,0.0,0,1002.0,1,8,"",90
"2013-10-22 00:34:00",16.1,14.5,0.0,0.0,0,1002.0,3,4,"",90
"2013-10-22 00:35:00",16.1,14.5,0.0,0.0,0,1001.9,1,4,"",90
"2013-10-22 00:36:00",16.1,14.5,0.0,0.0,0,1001.9,1,3,"",90
"2013-10-22 00:37:00",16.1,14.5,0.0,0.0,0,1002.0,0,0,"",90
"2013-10-22 00:38:00",16.1,14.5,0.0,0.0,0,1002.0,0,1,"",90
"2013-10-22 00:39:00",16.1,14.5,0.0,0.0,0,1002.0,0,4,"",90
"2013-10-22 00:40:00",16.1,14.5,0.0,0.0,0,1002.0,1,4,"",90
"2013-10-22 00:41:00",16.1,14.5,0.0,0.0,0,1001.9,3,4,"",90
"2013-10-22 00:42:00",16.1,14.5,0.0,0.0,0,1001.9,3,4,"",90
"2013-10-22 00:43:00",16.1,14.3,0.0,0.0,0,1001.8,1,4,"",89
"2013-10-22 00:44:00",16.1,14.3,0.0,0.0,0,1001.8,3,4,"",89
"2013-10-22 00:45:00",16.1,14.3,0.0,0.0,0,1001.8,3,4,"",89
"2013-10-22 00:46:00",16.1,14.5,0.0,0.0,0,1001.8,1,3,"",90
"2013-10-22 00:47:00",16.1,14.3,0.0,0.0,0,1001.8,1,3,"",89
"2013-10-22 00:48:00",16.1,14.3,0.0,0.0,0,1001.8,1,9,"",89
"2013-10-22 00:49:00",16.1,14.3,0.0,0.0,0,1001.8,1,3,"",89
"2013-10-22 00:50:00",16.1,14.5,0.0,0.0,0,1001.7,1,1,"",90
"2013-10-22 00:51:00",16.1,14.5,0.0,0.0,0,1001.8,1,4,"",90
"2013-10-22 00:52:00",16.1,14.5,0.0,0.0,0,1001.8,1,1,"",90
"2013-10-22 00:53:00",16.1,14.5,0.0,0.0,0,1001.8,1,4,"",90
"2013-10-22 00:54:00",16.1,14.5,0.0,0.0,0,1001.8,1,3,"",90
"2013-10-22 00:55:00",16.1,14.5,0.0,0.0,0,1001.8,1,3,"",90
"2013-10-22 00:56:00",16.1,14.5,0.0,0.0,0,1001.7,1,3,"",90
"2013-10-22 00:57:00",16.1,14.5,0.0,0.0,0,1001.7,1,4,"",90
"2013-10-22 00:58:00",16.1,14.4,0.0,0.0,0,1001.7,1,3,"",90
"2013-10-22 00:59:00",16.1,14.4,0.0,0.0,0,1001.7,1,1,"",90
"2013-10-22 01:00:00",16.1,14.4,0.0,0.0,0,1001.7,1,4,"",90
"2013-10-22 01:01:00",16.1,14.4,0.0,0.0,0,1001.6,3,4,"",90
"2013-10-22 01:02:00",16.1,14.4,0.0,0.0,0,1001.6,1,3,"",90
"2013-10-22 01:03:00",16.1,14.4,0.0,0.0,0,1001.6,1,3,"",90
"2013-10-22 01:04:00",16.1,14.4,0.0,0.0,0,1001.6,0,4,"",90
"2013-10-22 01:05:00",16.1,14.4,0.0,0.0,0,1001.6,1,4,"",90
"2013-10-22 01:06:00",16.1,14.4,0.0,0.0,0,1001.6,3,8,"",90
"2013-10-22 01:07:00",16.1,14.4,0.0,0.0,0,1001.6,3,4,"",90
"2013-10-22 01:08:00",16.1,14.4,0.0,0.0,0,1001.6,1,4,"",90
"2013-10-22 01:09:00",16.1,14.4,0.0,0.0,0,1001.5,1,3,"",90
"2013-10-22 01:10:00",16.1,14.4,0.0,0.0,0,1001.5,1,3,"",90
"2013-10-22 01:11:00",16.1,14.4,0.0,0.0,0,1001.5,1,4,"",90
"2013-10-22 01:12:00",16.1,14.4,0.0,0.0,0,1001.5,1,3,"",90
"2013-10-22 01:13:00",16.1,14.4,0.0,0.0,0,1001.5,0,1,"",90
"2013-10-22 01:14:00",16.1,14.4,0.0,0.0,0,1001.5,1,4,"",90
"2013-10-22 01:15:00",16.0,14.4,0.0,0.0,0,1001.5,1,6,"",90
"2013-10-22 01:16:00",16.0,14.4,0.0,0.0,0,1001.4,3,6,"",90
"2013-10-22 01:17:00",16.0,14.4,0.0,0.0,0,1001.5,1,1,"",90
"2013-10-22 01:18:00",16.0,14.4,0.0,0.0,0,1001.5,1,3,"",90
"2013-10-22 01:19:00",16.0,14.4,0.0,0.0,0,1001.4,1,4,"",90
"2013-10-22 01:20:00",16.0,14.4,0.0,0.0,0,1001.4,1,3,"",90
"2013-10-22 01:21:00",16.0,14.4,0.0,0.0,0,1001.4,1,4,"",90
"2013-10-22 01:22:00",16.0,14.4,0.0,0.0,0,1001.4,1,4,"",90
"2013-10-22 01:23:00",16.0,14.4,0.0,0.0,0,1001.3,1,1,"",90
"2013-10-22 01:24:00",16.0,14.4,0.0,0.0,0,1001.3,0,1,"",90
"2013-10-22 01:25:00",16.0,14.4,0.0,0.0,0,1001.3,0,3,"",90
"2013-10-22 01:26:00",16.0,14.4,0.0,0.0,0,1001.3,1,4,"",90
"2013-10-22 01:27:00",16.0,14.4,0.0,0.0,0,1001.3,1,1,"",90
"2013-10-22 01:28:00",16.0,14.4,0.0,0.0,0,1001.3,1,8,"",90
"2013-10-22 01:29:00",16.0,14.3,0.0,0.0,0,1001.3,3,4,"",90
"2013-10-22 01:30:00",16.0,14.3,0.0,0.0,0,1001.3,1,3,"",90
"2013-10-22 01:31:00",15.9,14.5,0.0,0.0,0,1001.3,1,3,"",91
"2013-10-22 01:32:00",15.9,14.5,0.0,0.0,0,1001.4,1,3,"",91
"2013-10-22 01:33:00",15.9,14.5,0.0,0.0,0,1001.3,0,3,"",91
"2013-10-22 01:34:00",15.9,14.5,0.0,0.0,0,1001.4,1,3,"",91
"2013-10-22 01:35:00",15.9,14.5,0.0,0.0,0,1001.4,1,4,"",91
"2013-10-22 01:36:00",15.9,14.5,0.0,0.0,0,1001.4,1,1,"",91
"2013-10-22 01:37:00",15.9,14.5,0.0,0.0,0,1001.3,1,4,"",91
"2013-10-22 01:38:00",15.9,14.5,0.0,0.0,0,1001.3,1,3,"",91
"2013-10-22 01:39:00",15.9,14.4,0.0,0.0,0,1001.3,1,4,"",91
"2013-10-22 01:40:00",15.9,14.4,0.0,0.0,0,1001.3,1,3,"",91
"2013-10-22 01:41:00",15.9,14.4,0.0,0.0,0,1001.3,1,3,"",91
"2013-10-22 01:42:00",15.8,14.4,0.0,0.0,0,1001.3,0,1,"",91
"2013-10-22 01:43:00",15.8,14.5,0.0,0.0,0,1001.3,0,1,"",92
"2013-10-22 01:44:00",15.8,14.5,0.0,0.0,0,1001.4,0,3,"",92
"2013-10-22 01:45:00",15.8,14.5,0.0,0.0,0,1001.4,1,3,"",92
"2013-10-22 01:46:00",15.8,14.5,0.0,0.0,0,1001.4,1,3,"",92
"2013-10-22 01:47:00",15.8,14.5,0.0,0.0,0,1001.4,1,1,"",92
"2013-10-22 01:48:00",15.8,14.5,0.0,0.0,0,1001.4,0,1,"",92
"2013-10-22 01:49:00",15.8,14.5,0.0,0.0,0,1001.4,0,3,"",92
"2013-10-22 01:50:00",15.8,14.5,0.0,0.0,0,1001.3,3,8,"",92
"2013-10-22 01:51:00",15.7,14.4,0.0,0.0,0,1001.3,3,3,"",92
"2013-10-22 01:52:00",15.7,14.4,0.0,0.0,0,1001.2,0,0,"",92
"2013-10-22 01:53:00",15.7,14.4,0.0,0.0,0,1001.3,0,0,"",92
"2013-10-22 01:54:00",15.7,14.4,0.0,0.0,0,1001.3,0,3,"",92
"2013-10-22 01:55:00",15.7,14.4,0.0,0.0,0,1001.2,1,4,"",92
"2013-10-22 01:56:00",15.7,14.4,0.0,0.0,0,1001.2,1,1,"",92
"2013-10-22 01:57:00",15.7,14.4,0.0,0.0,0,1001.2,1,3,"",92
"2013-10-22 01:58:00",15.7,14.4,0.0,0.0,0,1001.1,0,1,"",92
"2013-10-22 01:59:00",15.7,14.4,0.0,0.0,0,1001.1,0,1,"",92
"2013-10-22 02:00:00",15.6,14.3,0.0,0.0,0,1001.0,1,3,"",92
"2013-10-22 02:01:00",15.6,14.3,0.0,0.0,0,1001.0,1,3,"",92
"2013-10-22 02:02:00",15.6,14.3,0.0,0.0,0,1001.0,0,1,"",92
"2013-10-22 02:03:00",15.6,14.3,0.0,0.0,0,1001.0,0,6,"",92
"2013-10-22 02:04:00",15.6,14.3,0.0,0.0,0,1001.0,1,3,"",92
"2013-10-22 02:05:00",15.6,14.3,0.0,0.0,0,1000.9,0,1,"",92
"2013-10-22 02:06:00",15.6,14.4,0.0,0.0,0,1000.9,0,1,"",93
"2013-10-22 02:07:00",15.6,14.4,0.0,0.0,0,1000.9,0,0,"",93
"2013-10-22 02:08:00",15.6,14.4,0.0,0.0,0,1000.9,0,4,"",93
"2013-10-22 02:09:00",15.5,14.4,0.0,0.0,0,1000.9,1,3,"",93
"2013-10-22 02:10:00",15.5,14.4,0.0,0.0,0,1000.8,1,3,"",93
"2013-10-22 02:11:00",15.5,14.4,0.0,0.0,0,1000.8,1,3,"",93
"2013-10-22 02:12:00",15.5,14.4,0.0,0.0,0,1000.8,1,4,"",93
"2013-10-22 02:13:00",15.5,14.4,0.0,0.0,0,1000.8,1,3,"",93
"2013-10-22 02:14:00",15.5,14.3,0.0,0.0,0,1000.8,1,3,"",93
"2013-10-22 02:15:00",15.4,14.3,0.0,0.0,0,1000.8,1,3,"",93
"2013-10-22 02:16:00",15.4,14.3,0.0,0.0,0,1000.8,1,1,"",93
"2013-10-22 02:17:00",15.4,14.3,0.0,0.0,0,1000.7,0,1,"",93
"2013-10-22 02:18:00",15.4,14.3,0.0,0.0,0,1000.7,1,4,"",93
"2013-10-22 02:19:00",15.4,14.3,0.0,0.0,0,1000.8,1,4,"",93
"2013-10-22 02:20:00",15.4,14.3,0.0,0.0,0,1000.8,1,1,"",93
"2013-10-22 02:21:00",15.4,14.3,0.0,0.0,0,1000.8,0,1,"",93
"2013-10-22 02:22:00",15.4,14.3,0.0,0.0,0,1000.7,1,3,"",93
"2013-10-22 02:23:00",15.4,14.3,0.0,0.0,0,1000.6,1,3,"",93
"2013-10-22 02:24:00",15.4,14.3,0.0,0.0,0,1000.6,1,3,"",93
"2013-10-22 02:25:00",15.4,14.3,0.0,0.0,0,1000.6,1,1,"",93
"2013-10-22 02:26:00",15.4,14.3,0.0,0.0,0,1000.5,0,0,"",93
"2013-10-22 02:27:00",15.4,14.3,0.0,0.0,0,1000.5,0,1,"",93
"2013-10-22 02:28:00",15.4,14.3,0.0,0.0,0,1000.5,1,4,"",93
"2013-10-22 02:29:00",15.4,14.3,0.0,0.0,0,1000.5,1,4,"",93
"2013-10-22 02:30:00",15.4,14.3,0.0,0.0,0,1000.5,3,4,"",93
"2013-10-22 02:31:00",15.4,14.3,0.0,0.0,0,1000.5,1,1,"",93
"2013-10-22 02:32:00",15.4,14.3,0.0,0.0,0,1000.4,0,1,"",93
"2013-10-22 02:33:00",15.4,14.3,0.0,0.0,0,1000.4,0,4,"",93
"2013-10-22 02:34:00",15.4,14.3,0.0,0.0,0,1000.4,1,3,"",93
"2013-10-22 02:35:00",15.4,14.3,0.0,0.0,0,1000.4,0,1,"",93
"2013-10-22 02:36:00",15.4,14.2,0.0,0.0,0,1000.4,1,4,"",93
"2013-10-22 02:37:00",15.3,14.2,0.0,0.0,0,1000.4,1,3,"",93
"2013-10-22 02:38:00",15.3,14.2,0.0,0.0,0,1000.4,0,0,"",93
"2013-10-22 02:39:00",15.3,14.2,0.0,0.0,0,1000.4,0,0,"",93
"2013-10-22 02:40:00",15.3,14.2,0.0,0.0,0,1000.4,0,1,"",93
"2013-10-22 02:41:00",15.3,14.2,0.0,0.0,0,1000.4,1,3,"",93
"2013-10-22 02:42:00",15.3,14.2,0.0,0.0,0,1000.4,1,3,"",93
"2013-10-22 02:43:00",15.3,14.2,0.0,0.0,0,1000.4,1,4,"",93
"2013-10-22 02:44:00",15.3,14.2,0.0,0.0,0,1000.3,1,4,"",93
"2013-10-22 02:45:00",15.3,14.2,0.0,0.0,0,1000.3,1,3,"",93
"2013-10-22 02:46:00",15.3,14.2,0.0,0.0,0,1000.3,0,1,"",93
"2013-10-22 02:47:00",15.3,14.2,0.2,0.0,0,1000.3,0,1,"",93
"2013-10-22 02:48:00",15.3,14.2,0.2,0.0,0,1000.2,1,3,"",93
"2013-10-22 02:49:00",15.3,14.2,0.2,0.0,0,1000.2,1,4,"",93
"2013-10-22 02:50:00",15.3,14.2,0.2,0.0,0,1000.3,1,4,"",93
"2013-10-22 02:51:00",15.3,14.2,0.2,0.0,0,1000.3,1,4,"",93
"2013-10-22 02:52:00",15.3,14.2,0.2,0.0,0,1000.3,3,8,"",93
"2013-10-22 02:53:00",15.3,14.2,0.2,0.0,0,1000.3,1,4,"",93
"2013-10-22 02:54:00",15.3,14.2,0.2,0.0,0,1000.2,1,1,"",93
"2013-10-22 02:55:00",15.3,14.2,0.2,0.0,0,1000.3,0,4,"",93
"2013-10-22 02:56:00",15.3,14.2,0.2,0.0,0,1000.2,3,4,"",93
"2013-10-22 02:57:00",15.3,14.2,0.2,0.0,0,1000.1,1,4,"",93
"2013-10-22 02:58:00",15.3,14.2,0.2,0.0,0,1000.1,1,4,"",93
"2013-10-22 02:59:00",15.3,14.2,0.2,0.0,0,1000.1,1,1,"",93
"2013-10-22 03:00:00",15.3,14.2,0.2,0.0,0,1000.1,0,1,"",93
"2013-10-22 03:01:00",15.3,14.2,0.2,0.0,0,1000.1,1,4,"",93
"2013-10-22 03:02:00",15.3,14.2,0.2,0.0,0,1000.1,1,4,"",93
"2013-10-22 03:03:00",15.3,14.2,0.2,0.0,0,1000.1,1,4,"",93
"2013-10-22 03:04:00",15.3,14.2,0.2,0.0,0,1000.1,3,4,"",93
"2013-10-22 03:05:00",15.3,14.2,0.2,0.0,0,1000.1,3,4,"",93
"2013-10-22 03:06:00",15.3,14.2,0.2,0.0,0,1000.1,1,3,"",93
"2013-10-22 03:07:00",15.3,14.2,0.2,0.0,0,1000.1,1,4,"",93
"2013-10-22 03:08:00",15.3,14.2,0.2,0.0,0,1000.0,3,6,"",93
"2013-10-22 03:09:00",15.3,14.2,0.2,0.0,0,1000.0,1,3,"",93
"2013-10-22 03:10:00",15.3,14.2,0.2,0.0,0,1000.0,1,1,"",93
"2013-10-22 03:11:00",15.3,14.2,0.2,0.0,0,1000.0,1,4,"",93
"2013-10-22 03:12:00",15.3,14.2,0.2,0.0,0,1000.0,3,3,"",93
"2013-10-22 03:13:00",15.3,14.2,0.2,0.0,0,1000.0,1,1,"",93
"2013-10-22 03:14:00",15.3,14.2,0.2,0.0,0,999.9,1,9,"",93
"2013-10-22 03:15:00",15.3,14.2,0.2,0.0,0,999.9,1,1,"",93
"2013-10-22 03:16:00",15.3,14.2,0.2,0.0,0,999.9,0,1,"",93
"2013-10-22 03:17:00",15.3,14.2,0.2,0.0,0,999.8,0,3,"",93
"2013-10-22 03:18:00",15.3,14.2,0.2,0.0,0,999.8,1,4,"",93
"2013-10-22 03:19:00",15.3,14.2,0.2,0.0,0,999.8,1,3,"",93
"2013-10-22 03:20:00",15.3,14.2,0.2,0.0,0,999.8,1,3,"",93
"2013-10-22 03:21:00",15.3,14.2,0.2,0.0,0,999.7,1,4,"",93
"2013-10-22 03:22:00",15.3,14.2,0.2,0.0,0,999.7,1,3,"",93
"2013-10-22 03:23:00",15.3,14.2,0.2,0.0,0,999.7,1,4,"",93
"2013-10-22 03:24:00",15.3,14.2,0.2,0.0,0,999.7,1,4,"",93
"2013-10-22 03:25:00",15.3,14.2,0.2,0.0,0,999.7,1,4,"",93
"2013-10-22 03:26:00",15.3,14.2,0.2,0.0,0,999.7,1,3,"",93
"2013-10-22 03:27:00",15.3,14.2,0.2,0.0,0,999.7,1,4,"",93
"2013-10-22 03:28:00",15.3,14.2,0.2,0.0,0,999.7,1,4,"",93
"2013-10-22 03:29:00",15.3,14.2,0.2,0.0,0,999.7,3,4,"",93
"2013-10-22 03:30:00",15.3,14.2,0.2,0.0,0,999.7,1,1,"",93
"2013-10-22 03:31:00",15.3,14.2,0.2,0.0,0,999.7,0,0,"",93
"2013-10-22 03:32:00",15.4,14.2,0.2,0.0,0,999.7,0,0,"",93
"2013-10-22 03:33:00",15.4,14.2,0.2,0.0,0,999.7,0,3,"",93
"2013-10-22 03:34:00",15.4,14.2,0.2,0.0,0,999.7,1,4,"",93
"2013-10-22 03:35:00",15.4,14.3,0.2,0.0,0,999.7,1,4,"",93
"2013-10-22 03:36:00",15.4,14.2,0.2,0.0,0,999.7,1,4,"",93
"2013-10-22 03:37:00",15.4,14.2,0.2,0.0,0,999.7,1,3,"",93
"2013-10-22 03:38:00",15.3,14.2,0.2,0.0,0,999.7,1,1,"",93
"2013-10-22 03:39:00",15.3,14.2,0.2,0.0,0,999.7,1,3,"",93
"2013-10-22 03:40:00",15.3,14.2,0.2,0.0,0,999.7,1,3,"",93
"2013-10-22 03:41:00",15.3,14.2,0.2,0.0,0,999.7,1,3,"",93
"2013-10-22 03:42:00",15.4,14.2,0.2,0.0,0,999.7,1,1,"",93
"2013-10-22 03:43:00",15.3,14.2,0.2,0.0,0,999.7,1,4,"",93
"2013-10-22 03:44:00",15.4,14.2,0.2,0.0,0,999.7,1,3,"",93
"2013-10-22 03:45:00",15.3,14.2,0.2,0.0,0,999.6,1,4,"",93
"2013-10-22 03:46:00",15.3,14.2,0.2,0.0,0,999.6,1,4,"",93
"2013-10-22 03:47:00",15.3,14.2,0.2,0.0,0,999.6,1,3,"",93
"2013-10-22 03:48:00",15.3,14.2,0.2,0.0,0,999.5,1,3,"",93
"2013-10-22 03:49:00",15.3,14.2,0.2,0.0,0,999.6,0,1,"",93
"2013-10-22 03:50:00",15.3,14.2,0.2,0.0,0,999.5,0,1,"",93
"2013-10-22 03:51:00",15.3,14.2,0.2,0.0,0,999.6,0,1,"",93
"2013-10-22 03:52:00",15.3,14.2,0.2,0.0,0,999.5,0,3,"",93
"2013-10-22 03:53:00",15.3,14.2,0.2,0.0,0,999.5,1,4,"",93
"2013-10-22 03:54:00",15.3,14.2,0.2,0.0,0,999.5,1,4,"",93
"2013-10-22 03:55:00",15.3,14.2,0.2,0.0,0,999.4,3,4,"",93
"2013-10-22 03:56:00",15.3,14.2,0.2,0.0,0,999.4,1,1,"",93
"2013-10-22 03:57:00",15.4,14.2,0.2,0.0,0,999.4,0,1,"",93
"2013-10-22 03:58:00",15.4,14.2,0.2,0.0,0,999.4,0,4,"",93
"2013-10-22 03:59:00",15.4,14.2,0.2,0.0,0,999.4,1,3,"",93
"2013-10-22 04:00:00",15.4,14.3,0.2,0.0,0,999.4,1,4,"",93
"2013-10-22 04:01:00",15.4,14.2,0.4,0.0,0,999.4,3,4,"",93
"2013-10-22 04:02:00",15.4,14.2,0.4,0.0,0,999.4,3,8,"",93
"2013-10-22 04:03:00",15.4,14.2,0.4,0.0,0,999.4,1,1,"",93
"2013-10-22 04:04:00",15.3,14.2,0.4,0.0,0,999.4,1,4,"",93
"2013-10-22 04:05:00",15.3,14.2,0.4,0.0,0,999.4,1,4,"",93
"2013-10-22 04:06:00",15.3,14.2,0.4,0.0,0,999.4,1,3,"",93
"2013-10-22 04:07:00",15.3,14.4,0.4,0.0,0,999.4,1,1,"",94
"2013-10-22 04:08:00",15.3,14.4,0.4,0.0,0,999.3,1,3,"",94
"2013-10-22 04:09:00",15.3,14.4,0.4,0.0,0,999.3,1,4,"",94
"2013-10-22 04:10:00",15.3,14.4,0.4,0.0,0,999.3,1,3,"",94
"2013-10-22 04:11:00",15.3,14.4,0.4,0.0,0,999.2,1,3,"",94
"2013-10-22 04:12:00",15.3,14.3,0.4,0.0,0,999.2,0,3,"",94
"2013-10-22 04:13:00",15.3,14.3,0.4,0.0,0,999.2,1,4,"",94
"2013-10-22 04:14:00",15.3,14.3,0.4,0.0,0,999.2,1,3,"",94
"2013-10-22 04:15:00",15.3,14.3,0.4,0.0,0,999.2,1,4,"",94
"2013-10-22 04:16:00",15.3,14.3,0.4,0.0,0,999.2,1,4,"",94
"2013-10-22 04:17:00",15.3,14.3,0.4,0.0,0,999.2,0,1,"",94
"2013-10-22 04:18:00",15.3,14.3,0.4,0.0,0,999.2,1,3,"",94
"2013-10-22 04:19:00",15.2,14.3,0.4,0.0,0,999.2,1,4,"",94
"2013-10-22 04:20:00",15.2,14.3,0.4,0.0,0,999.1,3,4,"",94
"2013-10-22 04:21:00",15.2,14.3,0.4,0.0,0,999.1,1,3,"",94
"2013-10-22 04:22:00",15.2,14.3,0.4,0.0,0,999.1,1,4,"",94
"2013-10-22 04:23:00",15.2,14.3,0.4,0.0,0,999.2,1,1,"",94
"2013-10-22 04:24:00",15.2,14.3,0.4,0.0,0,999.1,1,4,"",94
"2013-10-22 04:25:00",15.2,14.3,0.4,0.0,0,999.2,1,1,"",94
"2013-10-22 04:26:00",15.2,14.2,0.4,0.0,0,999.2,0,3,"",94
"2013-10-22 04:27:00",15.2,14.2,0.6,0.0,0,999.2,1,1,"",94
"2013-10-22 04:28:00",15.2,14.2,0.6,0.0,0,999.2,0,3,"",94
"2013-10-22 04:29:00",15.2,14.2,0.6,0.0,0,999.1,1,3,"",94
"2013-10-22 04:30:00",15.2,14.2,0.6,0.0,0,999.1,0,1,"",94
"2013-10-22 04:31:00",15.2,14.4,0.6,0.0,0,999.1,0,0,"",95
"2013-10-22 04:32:00",15.2,14.4,0.6,0.0,0,999.2,0,4,"",95
"2013-10-22 04:33:00",15.2,14.4,0.6,0.0,0,999.2,1,4,"",95
"2013-10-22 04:34:00",15.1,14.3,0.6,0.0,0,999.2,1,1,"",95
"2013-10-22 04:35:00",15.1,14.3,0.6,0.0,0,999.2,0,1,"",95
"2013-10-22 04:36:00",15.1,14.3,0.6,0.0,0,999.1,0,1,"",95
"2013-10-22 04:37:00",15.1,14.3,0.8,0.0,0,999.1,0,1,"",95
"2013-10-22 04:38:00",15.1,14.3,0.8,0.0,0,999.0,0,3,"",95
"2013-10-22 04:39:00",15.1,14.3,0.8,0.0,0,999.0,1,1,"",95
"2013-10-22 04:40:00",15.1,14.3,0.8,0.0,0,999.0,0,3,"",95
"2013-10-22 04:41:00",15.1,14.3,0.8,0.0,0,999.0,1,4,"",95
"2013-10-22 04:42:00",15.1,14.3,0.8,0.0,0,999.0,3,4,"",95
"2013-10-22 04:43:00",15.1,14.3,0.8,0.0,0,998.9,1,3,"",95
"2013-10-22 04:44:00",15.1,14.3,0.8,0.0,0,999.0,1,1,"",95
"2013-10-22 04:45:00",15.1,14.3,0.8,0.0,0,998.9,0,3,"",95
"2013-10-22 04:46:00",15.1,14.3,0.8,0.0,0,999.0,0,1,"",95
"2013-10-22 04:47:00",15.1,14.3,0.8,0.0,0,998.9,0,1,"",95
"2013-10-22 04:48:00",15.0,14.2,1.0,0.0,0,998.9,0,1,"",95
"2013-10-22 04:49:00",15.0,14.2,1.0,0.0,0,998.9,1,4,"",95
"2013-10-22 04:50:00",15.0,14.2,1.0,0.0,0,998.9,1,1,"",95
"2013-10-22 04:51:00",15.0,14.2,1.0,0.0,0,998.9,0,1,"",95
"2013-10-22 04:52:00",15.0,14.2,1.0,0.0,0,999.0,0,3,"",95
"2013-10-22 04:53:00",15.0,14.2,1.0,0.0,0,998.9,0,4,"",95
"2013-10-22 04:54:00",15.0,14.2,1.0,0.0,0,998.9,1,4,"",95
"2013-10-22 04:55:00",15.0,14.2,1.0,0.0,0,998.9,1,1,"",95
"2013-10-22 04:56:00",15.0,14.2,1.0,0.0,0,998.9,0,4,"",95
"2013-10-22 04:57:00",14.9,14.3,1.0,0.0,0,998.9,1,3,"",96
"2013-10-22 04:58:00",14.9,14.3,1.0,0.0,0,998.9,1,1,"",96
"2013-10-22 04:59:00",14.9,14.3,1.0,0.0,0,999.0,0,1,"",96
"2013-10-22 05:00:00",14.9,14.3,1.0,0.0,0,999.0,0,1,"",96
"2013-10-22 05:01:00",14.9,14.3,1.2,0.0,0,998.9,0,1,"",96
"2013-10-22 05:02:00",14.9,14.3,1.2,0.0,0,998.9,0,1,"",96
"2013-10-22 05:03:00",14.9,14.3,1.2,0.0,0,998.9,0,1,"",96
"2013-10-22 05:04:00",14.9,14.3,1.2,0.0,0,998.9,1,1,"",96
"2013-10-22 05:05:00",14.9,14.3,1.2,0.0,0,998.9,0,3,"",96
"2013-10-22 05:06:00",14.9,14.3,1.2,0.0,0,998.9,1,3,"",96
"2013-10-22 05:07:00",14.9,14.3,1.2,0.0,0,998.9,0,1,"",96
"2013-10-22 05:08:00",14.9,14.3,1.2,0.0,0,998.9,0,3,"",96
"2013-10-22 05:09:00",14.9,14.2,1.2,0.0,0,998.9,1,1,"",96
"2013-10-22 05:10:00",14.8,14.2,1.2,0.0,0,998.9,1,1,"",96
"2013-10-22 05:11:00",14.8,14.2,1.2,0.0,0,998.9,0,1,"",96
"2013-10-22 05:12:00",14.8,14.2,1.2,0.0,0,998.9,0,1,"",96
"2013-10-22 05:13:00",14.8,14.2,1.4,0.0,0,998.9,0,1,"",96
"2013-10-22 05:14:00",14.8,14.2,1.4,0.0,0,998.9,0,3,"",96
"2013-10-22 05:15:00",14.8,14.2,1.4,0.0,0,998.9,0,0,"",96
"2013-10-22 05:16:00",14.8,14.2,1.4,0.0,0,998.9,0,3,"",96
"2013-10-22 05:17:00",14.8,14.2,1.4,0.0,0,998.9,1,1,"",96
"2013-10-22 05:18:00",14.8,14.2,1.4,0.0,0,998.8,1,3,"",96
"2013-10-22 05:19:00",14.8,14.2,1.4,0.0,0,998.8,1,6,"",96
"2013-10-22 05:20:00",14.8,14.3,1.4,0.0,0,998.8,3,3,"",97
"2013-10-22 05:21:00",14.8,14.3,1.4,0.0,0,998.8,1,3,"",97
"2013-10-22 05:22:00",14.8,14.1,1.4,0.0,0,998.7,1,3,"",96
"2013-10-22 05:23:00",14.8,14.1,1.4,0.0,0,998.7,1,1,"",96
"2013-10-22 05:24:00",14.8,14.3,1.4,0.0,0,998.7,0,1,"",97
"2013-10-22 05:25:00",14.8,14.3,1.4,0.0,0,998.6,0,3,"",97
"2013-10-22 05:26:00",14.8,14.3,1.4,0.0,0,998.6,1,1,"",97
"2013-10-22 05:27:00",14.8,14.3,1.4,0.0,0,998.6,0,1,"",97
"2013-10-22 05:28:00",14.8,14.3,1.4,0.0,0,998.6,0,3,"",97
"2013-10-22 05:29:00",14.8,14.3,1.4,0.0,0,998.5,1,3,"",97
"2013-10-22 05:30:00",14.8,14.3,1.4,0.0,0,998.5,0,3,"",97
"2013-10-22 05:31:00",14.8,14.3,1.4,0.0,0,998.5,1,1,"",97
"2013-10-22 05:32:00",14.8,14.3,1.4,0.0,0,998.5,0,1,"",97
"2013-10-22 05:33:00",14.8,14.3,1.4,0.0,0,998.5,1,3,"",97
"2013-10-22 05:34:00",14.7,14.3,1.4,0.0,0,998.4,1,1,"",97
"2013-10-22 05:35:00",14.7,14.3,1.4,0.0,0,998.4,1,1,"",97
"2013-10-22 05:36:00",14.7,14.3,1.4,0.0,0,998.4,0,1,"",97
"2013-10-22 05:37:00",14.7,14.3,1.4,0.0,0,998.4,1,4,"",97
"2013-10-22 05:38:00",14.7,14.3,1.6,0.0,0,998.3,1,1,"",97
"2013-10-22 05:39:00",14.7,14.3,1.6,0.0,0,998.3,1,4,"",97
"2013-10-22 05:40:00",14.7,14.3,1.6,0.0,0,998.3,1,3,"",97
"2013-10-22 05:41:00",14.7,14.3,1.6,0.0,0,998.3,1,3,"",97
"2013-10-22 05:42:00",14.7,14.3,1.6,0.0,0,998.2,0,3,"",97
"2013-10-22 05:43:00",14.7,14.3,1.6,0.0,0,998.3,1,3,"",97
"2013-10-22 05:44:00",14.7,14.2,1.6,0.0,0,998.3,1,1,"",97
"2013-10-22 05:45:00",14.7,14.2,1.6,0.0,0,998.2,1,4,"",97
"2013-10-22 05:46:00",14.7,14.3,1.6,0.0,0,998.2,1,3,"",97
"2013-10-22 05:47:00",14.7,14.3,1.6,0.0,0,998.2,0,1,"",97
"2013-10-22 05:48:00",14.7,14.2,1.6,0.0,0,998.2,1,3,"",97
"2013-10-22 05:49:00",14.7,14.2,1.6,0.0,0,998.1,1,4,"",97
"2013-10-22 05:50:00",14.7,14.2,1.6,0.0,0,998.1,1,9,"",97
"2013-10-22 05:51:00",14.7,14.2,1.6,0.0,0,998.1,3,8,"",97
"2013-10-22 05:52:00",14.7,14.2,1.6,0.0,0,998.1,3,4,"",97
"2013-10-22 05:53:00",14.7,14.2,1.6,0.0,0,998.1,3,4,"",97
"2013-10-22 05:54:00",14.7,14.2,1.6,0.0,0,998.0,1,3,"",97
"2013-10-22 05:55:00",14.7,14.2,1.6,0.0,0,998.0,1,3,"",97
"2013-10-22 05:56:00",14.7,14.2,1.6,0.0,0,998.0,1,1,"",97
"2013-10-22 05:57:00",14.7,14.2,1.6,0.0,0,998.0,1,3,"",97
"2013-10-22 05:58:00",14.7,14.3,1.6,0.0,0,998.0,0,1,"",97
"2013-10-22 05:59:00",14.7,14.2,1.6,0.0,0,998.0,0,3,"",97
"2013-10-22 06:00:00",14.7,14.3,1.6,0.0,0,997.9,1,3,"",97
"2013-10-22 06:01:00",14.7,14.3,1.6,0.0,0,997.9,0,1,"",97
"2013-10-22 06:02:00",14.7,14.3,1.6,0.0,0,997.9,0,1,"",97
"2013-10-22 06:03:00",14.7,14.3,1.6,0.0,0,997.8,1,3,"",97
"2013-10-22 06:04:00",14.7,14.3,1.6,0.0,0,997.8,1,3,"",97
"2013-10-22 06:05:00",14.7,14.3,1.6,0.0,0,997.8,1,3,"",97
"2013-10-22 06:06:00",14.7,14.3,1.6,0.0,0,997.8,1,4,"",97
"2013-10-22 06:07:00",14.7,14.3,1.6,0.0,0,997.8,1,3,"",97
"2013-10-22 06:08:00",14.7,14.3,1.6,0.0,0,997.8,0,3,"",97
"2013-10-22 06:09:00",14.7,14.2,1.8,0.0,0,997.8,1,4,"",97
"2013-10-22 06:10:00",14.7,14.3,1.8,0.0,0,997.9,1,1,"",97
"2013-10-22 06:11:00",14.7,14.2,1.8,0.0,0,997.8,1,3,"",97
"2013-10-22 06:12:00",14.7,14.2,1.8,0.0,0,997.8,1,1,"",97
"2013-10-22 06:13:00",14.7,14.2,1.8,0.0,0,997.8,0,3,"",97
"2013-10-22 06:14:00",14.7,14.2,1.8,0.0,0,997.8,1,4,"",97
"2013-10-22 06:15:00",14.7,14.2,1.8,0.0,0,997.8,0,1,"",97
"2013-10-22 06:16:00",14.7,14.2,1.8,0.0,0,997.8,0,3,"",97
"2013-10-22 06:17:00",14.7,14.2,1.8,0.0,0,997.8,0,1,"",97
"2013-10-22 06:18:00",14.7,14.2,1.8,0.0,0,997.8,0,4,"",97
"2013-10-22 06:19:00",14.7,14.2,1.8,0.0,0,997.8,1,1,"",97
"2013-10-22 06:20:00",14.7,14.2,1.8,0.0,0,997.8,0,4,"",97
"2013-10-22 06:21:00",14.7,14.2,1.8,0.0,0,997.8,1,4,"",97
"2013-10-22 06:22:00",14.7,14.3,1.8,0.0,0,997.8,1,4,"",97
"2013-10-22 06:23:00",14.7,14.2,1.8,0.0,0,997.7,1,4,"",97
"2013-10-22 06:24:00",14.7,14.3,1.8,0.0,0,997.7,1,1,"",97
"2013-10-22 06:25:00",14.7,14.3,1.8,0.0,0,997.7,1,3,"",97
"2013-10-22 06:26:00",14.7,14.3,1.8,0.0,0,997.6,1,3,"",97
"2013-10-22 06:27:00",14.7,14.3,1.8,0.0,0,997.7,1,1,"",97
"2013-10-22 06:28:00",14.7,14.3,1.8,0.0,0,997.6,0,3,"",97
"2013-10-22 06:29:00",14.7,14.3,1.8,0.0,0,997.6,1,1,"",97
"2013-10-22 06:30:00",14.7,14.3,1.8,0.0,0,997.7,1,4,"",97
"2013-10-22 06:31:00",14.7,14.3,1.8,0.0,0,997.7,1,4,"",97
"2013-10-22 06:32:00",14.7,14.3,1.8,0.0,0,997.6,1,4,"",97
"2013-10-22 06:33:00",14.7,14.3,1.8,0.0,0,997.6,1,1,"",97
"2013-10-22 06:34:00",14.7,14.4,1.8,0.0,0,997.6,1,1,"",98
"2013-10-22 06:35:00",14.7,14.4,1.8,0.0,0,997.6,1,4,"",98
"2013-10-22 06:36:00",14.7,14.4,1.8,0.0,0,997.6,3,4,"",98
"2013-10-22 06:37:00",14.7,14.4,1.8,0.0,0,997.6,1,1,"",98
"2013-10-22 06:38:00",14.7,14.4,1.8,0.0,0,997.6,1,3,"",98
"2013-10-22 06:39:00",14.7,14.4,1.8,0.0,0,997.6,1,1,"",98
"2013-10-22 06:40:00",14.7,14.4,1.8,0.0,0,997.6,1,1,"",98
"2013-10-22 06:41:00",14.7,14.4,1.8,0.0,0,997.6,0,1,"",98
"2013-10-22 06:42:00",14.7,14.4,1.8,0.0,0,997.6,0,3,"",98
"2013-10-22 06:43:00",14.7,14.4,1.8,0.0,0,997.6,1,3,"",98
"2013-10-22 06:44:00",14.7,14.4,2.0,0.0,0,997.5,1,3,"",98
"2013-10-22 06:45:00",14.7,14.4,2.0,0.0,0,997.6,1,3,"",98
"2013-10-22 06:46:00",14.7,14.4,2.0,0.0,0,997.6,1,4,"",98
"2013-10-22 06:47:00",14.7,14.4,2.0,0.0,0,997.5,1,4,"",98